Date String (YYYY-MM-DD hh:mm:ss) UTC,Instrument flags,Ambient pressure (hPa),Sample flow (lpm),Bypass flow (lpm),Sample temperature (°C),Ambient temperature (°C),ASC tube jacket temperature (°C),LED temperature (°C),Box temperature (°C),Sample RH (%),Span deviation,Mass concentration (μg/m³),Mass concentration (μg/m³),Mass concentration (μg/m³)
DateTimeUTC,F1_M11,P_M11,Q1_M11,Q2_M11,T1_M11,T2_M11,T3_M11,T4_M11,T5_M11,U1_M11,ZSPAN_M11,X2_M11,X0_M11,X1_M11
2022-08-09 07:00:00,,0829.8,5.00,0.00,29.7,28.8,00.0,38.5,31.8,28.9,0000.0,0005.53,0009.96,0004.93
2022-08-09 07:01:00,,0829.8,5.00,0.00,29.8,28.6,00.0,38.5,31.7,28.9,0000.0,0005.51,0009.90,0004.93
2022-08-09 07:02:00,,0829.7,4.99,0.00,29.7,27.8,00.0,38.4,31.5,28.9,0000.0,0005.52,0009.65,0004.94
2022-08-09 07:03:00,,0829.7,5.00,0.00,29.6,27.2,00.0,38.4,31.3,29.2,0000.0,0005.51,0009.44,0004.94
2022-08-09 07:04:00,,0829.8,5.01,0.00,29.6,27.0,00.0,38.4,31.2,29.3,0000.0,0005.54,0009.56,0004.95
2022-08-09 07:05:00,,0829.8,4.99,0.00,29.5,27.0,00.0,38.3,31.1,30.4,0000.0,0005.56,0009.87,0004.95
2022-08-09 07:06:00,,0829.8,5.00,0.00,29.4,27.2,00.0,38.3,31.1,32.4,0000.0,0005.54,0010.06,0004.95
2022-08-09 07:07:00,,0829.8,5.01,0.00,29.4,27.3,00.0,38.3,31.2,30.9,0000.0,0005.53,0009.91,0004.95
2022-08-09 07:08:00,,0829.8,4.99,0.00,29.4,27.5,00.0,38.3,31.2,30.4,0000.0,0005.54,0009.61,0004.95
2022-08-09 07:09:00,,0829.8,5.01,0.00,29.4,27.7,00.0,38.3,31.3,29.8,0000.0,0005.54,0009.67,0004.95
2022-08-09 07:10:00,,0829.8,5.00,0.00,29.4,27.9,00.0,38.3,31.3,29.7,0000.0,0005.50,0010.13,0004.94
2022-08-09 07:11:00,,0829.8,5.00,0.00,29.4,28.0,00.0,38.3,31.3,29.8,0000.0,0005.50,0010.16,0004.93
2022-08-09 07:12:00,,0829.8,5.01,0.00,29.4,28.1,00.0,38.3,31.4,29.7,0000.0,0005.52,0010.25,0004.94
2022-08-09 07:13:00,,0829.8,5.00,0.00,29.5,28.2,00.0,38.3,31.4,29.6,0000.0,0005.57,0010.77,0004.96
2022-08-09 07:14:00,,0829.8,4.99,0.00,29.5,28.3,00.0,38.3,31.4,29.6,0000.0,0005.59,0011.07,0004.98
2022-08-09 07:15:00,,0829.8,5.00,0.00,29.5,28.4,00.0,38.3,31.5,29.4,0000.0,0005.62,0011.43,0005.00
2022-08-09 07:16:00,,0829.8,5.00,0.00,29.6,28.5,00.0,38.3,31.5,29.1,0000.0,0005.63,0012.14,0005.02
2022-08-09 07:17:00,,0829.9,5.00,0.00,29.6,28.6,00.0,38.4,31.6,28.8,0000.0,0005.68,0012.28,0005.04
2022-08-09 07:18:00,,0829.9,5.00,0.00,29.6,28.7,00.0,38.4,31.6,28.9,0000.0,0005.74,0012.39,0005.07
2022-08-09 07:19:00,,0829.9,4.99,0.00,29.7,28.7,00.0,38.4,31.7,29.1,0000.0,0005.74,0012.32,0005.08
2022-08-09 07:20:00,,0829.8,5.01,0.00,29.7,28.8,00.0,38.4,31.7,29.1,0000.0,0005.75,0012.32,0005.10
2022-08-09 07:21:00,,0829.8,5.01,0.00,29.7,28.8,00.0,38.5,31.7,29.0,0000.0,0005.79,0012.14,0005.11
2022-08-09 07:22:00,,0829.8,5.00,0.00,29.8,28.6,00.0,38.4,31.7,28.9,0000.0,0005.80,0012.17,0005.13
2022-08-09 07:23:00,,0829.9,5.01,0.00,29.7,27.9,00.0,38.4,31.6,28.9,0000.0,0005.82,0012.19,0005.14
2022-08-09 07:24:00,,0829.9,4.99,0.00,29.7,27.6,00.0,38.4,31.5,28.9,0000.0,0005.84,0012.12,0005.14
2022-08-09 07:25:00,,0829.9,5.01,0.00,29.6,27.6,00.0,38.4,31.4,28.9,0000.0,0005.88,0011.79,0005.14
2022-08-09 07:26:00,,0829.9,4.99,0.00,29.6,27.7,00.0,38.4,31.4,28.9,0000.0,0005.92,0011.40,0005.15
2022-08-09 07:27:00,,0829.9,5.00,0.00,29.6,27.8,00.0,38.4,31.4,28.5,0000.0,0005.94,0011.00,0005.16
2022-08-09 07:28:00,,0829.9,5.00,0.00,29.6,27.9,00.0,38.4,31.4,28.5,0000.0,0005.94,0010.26,0005.16
2022-08-09 07:29:00,,0829.9,5.00,0.00,29.6,28.0,00.0,38.4,31.5,28.7,0000.0,0005.89,0010.23,0005.15
2022-08-09 07:30:00,,0829.9,4.99,0.00,29.6,28.2,00.0,38.4,31.5,28.5,0000.0,0005.94,0010.73,0005.16
2022-08-09 07:31:00,,0829.9,5.00,0.00,29.6,28.3,00.0,38.4,31.5,28.3,0000.0,0005.97,0011.14,0005.17
2022-08-09 07:32:00,,0829.9,5.00,0.00,29.6,28.4,00.0,38.4,31.6,28.2,0000.0,0005.97,0010.69,0005.18
2022-08-09 07:33:00,,0829.9,5.00,0.00,29.7,28.5,00.0,38.4,31.6,28.2,0000.0,0005.94,0010.69,0005.18
2022-08-09 07:34:00,,0829.9,5.01,0.00,29.7,28.6,00.0,38.4,31.7,28.0,0000.0,0005.95,0010.74,0005.18
2022-08-09 07:35:00,,0829.9,5.00,0.00,29.7,28.7,00.0,38.5,31.7,27.9,0000.0,0005.95,0010.58,0005.18
2022-08-09 07:36:00,,0829.9,5.00,0.00,29.7,28.7,00.0,38.5,31.7,27.6,0000.0,0005.89,0010.47,0005.18
2022-08-09 07:37:00,,0829.9,4.99,0.00,29.8,28.8,00.0,38.5,31.8,27.7,0000.0,0005.87,0010.68,0005.17
2022-08-09 07:38:00,,0829.9,5.00,0.00,29.8,28.8,00.0,38.5,31.7,27.7,0000.0,0005.91,0010.76,0005.16
2022-08-09 07:39:00,,0829.9,5.00,0.00,29.8,28.1,00.0,38.5,31.6,27.5,0000.0,0005.90,0010.73,0005.15
2022-08-09 07:40:00,,0829.9,5.00,0.00,29.7,27.4,00.0,38.4,31.4,27.6,0000.0,0005.91,0010.61,0005.15
2022-08-09 07:41:00,,0829.9,5.00,0.00,29.6,27.0,00.0,38.4,31.3,27.7,0000.0,0005.87,0010.60,0005.13
2022-08-09 07:42:00,,0829.8,5.00,0.00,29.5,27.0,00.0,38.4,31.2,28.0,0000.0,0005.86,0010.73,0005.12
2022-08-09 07:43:00,,0829.8,4.99,0.00,29.5,27.2,00.0,38.4,31.2,28.0,0000.0,0005.85,0010.93,0005.11
2022-08-09 07:44:00,,0829.8,5.01,0.00,29.5,27.3,00.0,38.3,31.2,27.9,0000.0,0005.87,0011.75,0005.10
2022-08-09 07:45:00,,0829.8,4.99,0.00,29.4,27.5,00.0,38.3,31.3,27.8,0000.0,0005.85,0012.09,0005.08
2022-08-09 07:46:00,,0829.8,5.01,0.00,29.4,27.7,00.0,38.3,31.3,27.7,0000.0,0005.79,0011.98,0005.05
2022-08-09 07:47:00,,0829.8,5.00,0.00,29.5,27.8,00.0,38.3,31.3,27.7,0000.0,0005.80,0012.02,0005.04
2022-08-09 07:48:00,,0829.8,5.00,0.00,29.5,28.0,00.0,38.3,31.4,27.7,0000.0,0005.80,0011.79,0005.04
2022-08-09 07:49:00,,0829.8,5.00,0.00,29.5,28.1,00.0,38.3,31.4,27.8,0000.0,0005.76,0011.61,0005.04
2022-08-09 07:50:00,,0829.7,4.99,0.00,29.5,28.2,00.0,38.3,31.5,28.0,0000.0,0005.76,0011.72,0005.02
2022-08-09 07:51:00,,0829.7,5.00,0.00,29.5,28.3,00.0,38.4,31.5,27.9,0000.0,0005.77,0011.76,0005.02
2022-08-09 07:52:00,,0829.7,5.01,0.00,29.6,28.4,00.0,38.4,31.5,27.6,0000.0,0005.77,0011.69,0005.00
2022-08-09 07:53:00,,0829.7,5.01,0.00,29.6,28.5,00.0,38.4,31.6,27.6,0000.0,0005.78,0011.28,0004.99
2022-08-09 07:54:00,,0829.7,5.00,0.00,29.6,28.6,00.0,38.4,31.6,27.7,0000.0,0005.79,0011.45,0004.99
2022-08-09 07:55:00,,0829.6,4.99,0.00,29.7,28.7,00.0,38.4,31.7,27.6,0000.0,0005.82,0010.69,0005.00
2022-08-09 07:56:00,,0829.7,5.00,0.00,29.7,28.7,00.0,38.4,31.7,27.5,0000.0,0005.83,0011.05,0005.00
2022-08-09 07:57:00,,0829.7,5.00,0.00,29.7,28.8,00.0,38.5,31.7,27.4,0000.0,0005.85,0011.27,0005.00
2022-08-09 07:58:00,,0829.7,5.01,0.00,29.8,28.8,00.0,38.5,31.8,27.3,0000.0,0005.83,0011.26,0004.99
2022-08-09 07:59:00,,0829.7,5.00,0.00,29.8,28.9,00.0,38.5,31.8,27.3,0000.0,0005.82,0011.29,0004.99
